SCP
0 0 0 0 0 0 0 0 0 0 0 0 0 0 0 0 0 0 0 0 0 0 0 0 0 0 0 0 0 1 1 1 1 1 1 1 1 1
0 0 0 0 0 0 0 0 0 0 0 0 0 0 0 0 0 0 0 0 0 0 0 0 0 0 0 0 0 0 1 1 1 1 1 1 1 1
0 0 0 0 0 0 0 0 0 0 0 0 0 0 0 0 0 0 0 0 0 0 0 0 0 0 0 0 0 0 0 0 0 0 1 1 1 1
1 1 1 1 1 0 0 0 0 0 0 0 0 0 0 0 0 0 0 0 0 0 0 0 0 0 0 0 0 0 0 0 0 0 0 0 1 1
1 1 1 1 1 1 1 1 0 0 0 0 0 0 0 0 0 0 0 0 0 0 0 0 0 0 0 0 0 0 0 0 0 0 0 0 0 0
2 2 2 2 2 2 2 1 1 1 0 0 0 0 0 0 0 0 0 0 0 0 0 0 0 0 0 0 0 0 0 0 0 0 0 0 0 0
3 3 3 3 2 2 2 1 1 1 1 0 0 0 0 0 0 0 0 0 0 0 0 0 0 0 0 0 0 0 0 0 0 0 0 0 0 0
4 4 4 3 2 2 1 1 1 1 1 1 1 1 1 0 0 0 0 0 0 0 0 0 0 0 1 1 0 0 0 0 0 0 0 0 0 0
4 4 4 4 3 3 2 1 1 1 1 1 1 1 1 1 1 0 0 0 0 0 1 1 1 1 1 1 0 0 0 0 0 0 0 0 0 0
4 4 4 4 3 3 3 2 2 1 1 1 1 1 1 1 1 1 0 0 0 0 1 1 1 1 1 0 0 0 0 0 0 0 0 0 0 0
3 3 3 3 2 2 2 3 3 2 1 1 1 0 0 0 1 1 1 0 0 0 0 0 0 0 1 0 0 0 0 0 0 0 0 0 0 0
3 3 2 2 1 1 1 2 2 3 2 2 2 1 1 1 1 1 1 1 0 0 1 1 0 0 0 0 0 0 0 0 0 0 0 0 0 0
3 3 2 1 0 0 1 1 2 2 3 3 3 3 2 2 2 1 1 1 1 1 1 1 1 0 0 0 0 0 0 0 0 0 0 0 0 0
2 2 2 1 0 0 0 0 1 1 2 2 3 3 3 3 3 3 2 2 1 1 1 1 1 1 1 1 0 0 1 1 1 1 1 0 0 0
1 1 1 0 0 0 0 0 0 0 1 1 2 2 3 3 4 4 3 2 2 1 1 1 1 1 1 1 1 0 1 1 1 1 1 1 1 1
0 0 0 0 0 0 0 0 0 1 1 1 1 2 2 3 5 5 4 3 2 2 1 1 1 1 1 1 1 0 0 1 1 1 1 1 1 1
0 0 0 0 0 1 1 1 1 1 1 1 2 2 3 4 5 5 4 3 2 2 1 1 1 1 1 1 1 0 0 1 1 1 1 1 1 1
0 0 0 1 1 1 1 1 1 1 1 1 2 2 3 4 4 4 3 2 2 1 1 2 2 1 1 1 1 0 0 1 1 1 1 1 1 1
0 0 0 1 1 1 1 1 1 2 2 1 1 2 2 3 3 3 2 2 1 1 1 1 1 1 1 1 1 0 0 1 1 1 1 1 1 1
0 0 1 1 1 1 1 1 1 2 2 1 1 1 2 2 2 2 2 1 1 1 1 1 1 1 1 1 1 0 0 1 1 1 1 1 1 1
0 0 1 1 1 1 1 1 1 1 1 1 1 1 1 1 1 1 1 1 1 1 1 1 1 1 1 1 1 0 0 0 1 1 1 1 1 1
0 0 1 1 1 1 1 1 1 1 1 1 1 1 1 1 1 1 1 1 1 1 1 1 1 1 1 1 1 0 0 0 1 1 1 1 1 1
0 0 0 1 1 1 1 1 1 1 1 1 1 1 1 1 1 1 1 1 1 1 1 1 1 1 1 1 1 0 0 0 1 1 0 0 0 0
Wind_Speed
5 5 6 3 4 4 4 5 6 7 5 3 4 3 3 4 1 5 6 2 2 5 6 6 7 7 8 8 8 9 9 10 12 13 14 15 18 20
5 5 5 6 4 5 5 5 6 7 7 4 3 5 4 6 4 6 8 5 9 9 8 7 7 8 8 9 10 10 10 11 12 13 13 14 15 16
7 8 8 8 6 6 6 6 6 7 8 8 6 5 5 8 7 7 8 9 8 12 9 8 8 9 9 9 10 10 11 12 12 13 13 14 15 16
9 9 9 8 9 8 7 8 7 7 9 10 8 7 8 8 8 9 9 9 9 7 10 9 10 10 10 11 11 11 11 12 12 12 13 13 14 15
11 11 10 10 10 9 9 9 8 8 8 9 10 7 8 8 8 9 11 9 10 9 11 13 13 12 12 12 12 12 12 12 12 12 13 13 13 14
12 12 12 12 12 11 10 11 10 10 9 10 10 9 8 8 8 9 9 9 9 9 8 8 10 13 14 14 13 13 13 13 12 13 13 14 14 14
13 13 14 13 13 11 10 10 10 10 10 10 10 9 9 7 8 8 9 8 8 8 9 9 9 10 12 15 17 16 14 13 12 13 13 14 14 14
14 14 14 15 15 16 15 14 13 13 12 11 11 11 10 10 8 9 9 9 9 7 8 9 9 9 9 10 8 12 13 12 13 13 14 14 15 15
14 14 13 13 15 15 18 21 20 20 18 15 15 14 12 10 10 12 11 11 10 8 7 10 9 10 10 9 8 10 11 13 14 14 14 14 14 15
16 16 16 15 15 15 15 16 17 18 19 18 17 16 14 12 11 12 12 12 12 11 11 12 11 11 10 10 10 14 14 15 15 15 15 14 14 15
17 17 17 17 16 15 16 17 17 15 16 17 17 16 14 11 9 10 12 12 12 11 10 12 11 11 10 10 10 14 16 16 15 15 15 15 14 13
14 15 17 18 17 15 17 17 18 17 16 14 16 17 18 17 16 16 15 14 13 12 10 10 11 10 11 10 9 8 10 14 17 17 16 16 14 11
12 12 12 14 18 17 17 17 18 16 14 14 14 14 15 14 15 17 16 15 14 14 10 9 10 10 11 10 9 9 9 9 10 13 16 18 16 14
12 12 11 9 9 13 15 16 17 14 13 13 14 14 14 14 13 15 16 17 15 16 13 11 10 11 12 12 11 10 10 9 10 10 10 12 16 18
11 13 14 14 13 12 17 18 16 13 14 15 15 15 14 13 12 11 13 14 16 16 15 16 14 13 13 13 13 12 11 10 10 10 11 11 10 10
11 11 13 17 16 16 14 13 14 14 15 15 15 14 13 12 12 12 12 12 13 14 16 17 16 16 14 15 13 13 12 12 11 10 10 11 10 11
14 13 13 13 13 12 12 13 12 13 14 15 14 13 12 12 11 11 11 12 13 13 13 12 15 15 16 15 14 14 13 12 12 11 10 12 12 11
12 13 14 14 14 14 13 13 12 12 13 13 13 13 13 12 11 11 11 12 13 13 12 11 10 11 12 13 14 16 14 13 12 11 12 13 13 12
12 13 13 13 13 13 13 13 13 12 11 11 12 11 12 12 11 11 11 12 12 12 12 11 11 12 13 14 15 19 16 13 12 12 12 12 13 11
10 11 12 12 12 13 13 12 12 11 10 10 11 12 12 12 11 12 11 12 12 12 12 12 12 13 14 14 12 10 18 16 13 13 12 11 12 11
11 11 11 11 11 12 11 11 12 11 11 10 10 11 11 11 11 11 11 12 12 12 13 13 12 13 12 11 12 13 12 17 15 12 12 11 11 11
11 11 11 12 11 11 10 9 10 10 10 9 9 9 9 10 11 12 11 11 10 11 13 12 11 10 11 13 14 14 14 12 15 18 16 15 13 13
11 11 11 11 11 10 9 9 10 9 8 8 8 8 9 9 10 10 11 11 11 11 12 12 10 10 11 12 13 13 16 15 11 11 13 18 21 20
Wind_Direction
235 219 248 256 252 266 271 277 289 292 282 196 236 224 248 270 271 276 276 171 256 278 278 279 276 270 266 260 255 251 249 247 247 246 242 239 238 238
252 266 261 263 255 256 260 261 265 278 287 292 254 262 281 293 229 261 269 230 234 242 251 262 268 266 264 261 257 254 251 249 249 248 246 242 240 240
238 237 239 258 263 259 249 253 255 259 268 275 273 260 252 267 276 269 265 262 249 207 220 245 259 262 262 260 258 255 253 251 250 250 248 246 244 242
238 239 242 239 238 254 259 255 255 259 265 273 276 270 251 249 257 264 266 261 266 203 202 232 248 253 255 255 256 256 253 251 251 251 250 248 247 247
237 237 238 240 241 243 245 252 252 247 249 262 266 266 264 256 258 254 256 257 266 244 207 220 231 241 246 248 249 250 251 251 251 251 251 250 249 249
238 239 238 236 237 239 241 244 250 256 253 255 262 261 255 250 251 260 258 241 246 259 256 244 228 226 235 239 240 241 242 245 248 250 251 249 248 249
236 236 237 236 238 237 243 240 238 243 250 252 255 258 255 252 250 253 259 263 253 252 259 256 243 238 226 226 229 231 232 238 244 248 249 248 247 247
240 239 238 230 229 227 239 248 252 249 251 256 259 258 259 258 257 262 266 263 262 249 249 258 260 260 256 254 226 204 218 234 243 248 248 247 245 244
244 243 243 239 225 229 225 227 237 242 247 253 260 262 262 252 255 256 252 261 269 275 262 263 262 261 259 256 210 208 225 237 244 248 249 248 246 244
247 244 244 248 239 233 235 230 230 229 226 230 244 253 255 260 255 256 266 264 259 253 252 260 264 264 262 261 221 212 226 236 242 246 247 247 246 245
251 248 246 246 241 226 236 243 242 241 233 227 231 240 249 253 253 255 252 252 255 251 235 244 256 263 265 262 250 216 220 230 236 239 241 242 243 244
255 252 246 244 245 220 231 240 244 244 246 233 223 234 241 240 228 237 247 250 254 256 246 242 251 260 266 261 257 245 227 225 227 232 233 234 231 238
271 266 261 236 230 225 227 240 245 251 250 245 240 233 229 230 227 221 228 240 248 251 250 240 249 254 259 266 266 262 260 258 238 231 226 225 220 223
280 278 281 290 251 236 232 241 246 250 253 251 246 242 237 233 228 225 222 227 239 251 260 260 256 256 262 265 265 262 255 253 256 260 256 221 212 220
277 280 285 287 278 257 239 235 236 239 242 244 244 244 243 241 239 230 228 229 235 241 245 243 246 251 253 258 263 265 265 260 252 251 253 251 242 226
280 287 274 260 253 257 257 236 233 237 237 239 242 244 245 242 235 234 231 225 228 233 232 234 237 243 247 250 256 259 259 260 259 255 253 254 250 247
312 294 282 274 264 255 249 244 238 234 233 239 243 245 243 240 237 233 233 235 236 239 238 226 225 227 239 249 254 253 254 254 254 255 255 257 253 247
286 279 278 276 272 267 262 255 246 239 237 237 237 239 240 240 237 235 231 233 238 241 244 242 232 227 231 236 236 252 256 256 254 249 250 255 255 250
269 272 275 277 277 274 268 262 258 251 241 239 240 240 239 240 240 238 237 236 237 241 244 242 237 234 236 241 233 216 237 250 253 251 247 248 254 256
279 285 286 285 284 282 278 273 266 258 246 239 239 239 238 239 239 239 239 239 240 242 243 240 237 235 239 249 259 243 213 235 246 249 251 249 252 254
304 300 297 295 293 289 284 280 275 267 256 245 240 237 236 236 238 238 239 240 243 245 244 243 241 239 245 252 256 256 241 218 233 248 255 258 257 254
308 306 306 302 298 293 288 281 276 269 263 254 247 241 238 236 237 240 240 239 238 241 248 252 246 237 236 239 246 253 256 245 223 231 244 253 259 259
313 311 308 305 300 296 292 286 280 273 267 260 252 247 243 239 238 239 240 240 240 242 245 248 247 240 238 241 247 253 258 256 249 237 235 228 230 244